Dewpoint
64 64 64 63 63 64 64 63 64 64 63 62 62 62 62 62 63 63 63 65 65 65 66 66 66 66 66 66 67 67 66 66 66 65 65 64 64 64 63 63 63 63
65 64 64 64 64 64 65 64 64 65 64 64 63 62 63 63 64 64 64 65 66 65 66 66 66 66 66 66 67 66 66 66 65 66 65 64 64 64 64 64 63 63
66 65 65 65 64 64 64 65 65 65 65 64 64 63 64 65 64 64 64 65 65 65 66 66 66 66 66 66 66 66 66 66 65 66 65 65 64 64 64 64 63 63
66 66 65 65 65 64 64 65 65 65 65 65 64 64 64 66 65 65 65 65 65 66 66 66 66 66 66 66 66 66 65 65 65 65 65 65 64 64 64 63 63 63
66 66 66 66 66 65 65 65 65 65 65 65 65 65 65 65 65 65 64 65 65 65 66 66 66 66 66 66 66 65 65 65 65 65 64 64 64 64 63 63 63 62
67 67 67 66 66 66 65 65 65 65 65 66 66 65 65 65 65 65 65 64 65 65 65 66 66 66 66 66 65 65 65 64 65 64 64 63 63 63 63 62 62 62
67 67 67 67 66 66 66 66 66 65 65 66 66 66 66 65 65 65 65 65 65 64 65 65 66 66 66 66 65 65 64 64 64 64 63 63 62 62 62 62 61 61
67 67 68 68 67 67 66 66 66 66 66 66 66 66 66 65 65 65 65 65 65 65 64 65 66 66 66 66 65 64 64 64 63 63 63 62 61 61 61 61 60 60
68 67 68 68 68 67 67 66 66 66 66 66 66 66 66 66 66 65 65 65 65 65 64 65 65 66 66 66 65 64 64 63 63 63 62 61 60 60 59 59 59 60
68 68 68 68 68 67 67 67 66 66 66 66 66 66 66 66 66 65 65 65 65 65 65 64 65 66 66 66 65 64 64 63 63 62 61 61 60 59 59 58 58 58
68 68 68 68 68 68 67 67 66 66 66 66 66 66 66 66 66 65 65 65 65 65 64 64 65 65 66 66 65 64 64 63 63 62 61 60 60 59 60 58 58 57
67 68 68 68 68 67 67 67 67 66 66 66 66 66 66 66 66 65 65 65 65 64 64 64 64 65 65 65 65 64 64 63 63 62 61 60 59 59 59 58 58 58
66 66 67 67 67 68 68 67 67 67 66 66 66 66 66 66 66 65 65 65 64 64 64 64 64 64 65 65 65 64 64 63 62 62 61 60 59 59 58 58 58 57
65 66 66 67 67 68 68 67 67 67 67 66 66 66 65 66 65 65 65 65 64 64 64 64 63 63 64 64 64 64 63 63 62 61 60 60 59 59 58 58 57 57
64 64 64 65 66 67 67 67 67 67 67 67 66 65 65 66 66 65 65 64 64 64 64 64 63 63 63 64 64 64 63 62 62 61 60 60 59 59 58 57 57 56
63 63 62 63 65 67 67 67 67 67 67 67 66 66 65 65 65 65 64 64 64 63 63 64 63 63 60 57 59 63 63 62 62 61 60 59 59 58 58 57 56 55
61 61 62 63 65 67 67 67 67 67 67 67 67 66 65 65 65 65 64 64 64 63 63 63 63 62 56 53 53 55 61 62 61 60 60 59 58 58 57 56 55 54
61 61 63 65 66 66 67 67 67 67 67 67 67 66 66 65 65 65 64 64 64 63 63 63 63 58 51 51 52 52 56 61 61 60 59 59 58 58 57 55 53 53
62 63 65 66 66 66 66 66 66 67 67 67 67 66 66 65 65 65 64 64 64 63 63 63 62 56 50 50 51 51 52 58 61 60 59 58 58 57 56 54 52 52
61 62 64 66 67 66 66 66 66 66 66 67 67 66 66 65 65 64 64 64 64 63 63 63 63 56 49 49 50 49 50 55 61 60 59 58 58 57 56 54 52 51
59 61 63 65 66 67 66 65 65 66 66 66 66 66 66 65 65 64 64 64 64 64 63 63 63 53 48 48 49 49 49 53 61 60 59 58 58 57 55 54 52 51
58 56 59 63 65 66 66 65 65 65 65 66 66 66 66 66 65 65 64 64 64 64 63 63 63 50 48 47 48 48 48 58 60 59 58 58 57 56 54 53 51 50
59 58 57 58 61 64 65 65 65 65 65 65 66 66 66 66 65 65 64 64 64 64 64 63 63 52 47 47 47 47 50 60 60 59 58 57 57 55 53 52 51 50
59 59 59 58 59 62 63 64 65 65 65 65 65 66 66 66 65 65 65 64 64 64 64 63 63 55 46 46 47 46 53 60 59 58 57 57 57 55 53 52 51 52
56 58 60 58 58 58 60 62 64 64 64 65 65 65 66 66 65 65 65 64 64 64 61 62 63 55 45 46 46 46 53 59 59 58 57 57 56 54 52 52 51 51
57 57 57 58 58 57 58 60 62 63 64 64 65 65 66 66 65 65 65 64 64 64 64 63 62 55 47 45 46 46 50 59 59 57 57 56 55 54 52 51 50 50